Weather History for KLBT - March, 2011

Change the Weather History Date:

Monday, March 21, 2011

  Actual Average Record
Temperature  
Mean Temperature 64 °F 56 °F  
Max Temperature 77 °F 68 °F 82 °F (2012)
Min Temperature 51 °F 43 °F 32 °F (2013)
Degree Days  
Heating Degree Days 1 10  
Month to date heating degree days 229 262  
Since 1 July heating degree days 2733 2492  
Cooling Degree Days 0 0  
Month to date cooling degree days 1 0  
Year to date cooling degree days 10 3  
Growing Degree Days 13 (Base 50)    
Moisture  
Dew Point 51 °F    
Average Humidity 66    
Maximum Humidity 83    
Minimum Humidity 49    
Precipitation  
Precipitation 0.00 in 0.09 in 0.50 in (2002)
Month to date precipitation 1.51 2.26  
Year to date precipitation 6.17 8.13  
Sea Level Pressure  
Sea Level Pressure 30.24 in    
Wind  
Wind Speed 8 mph (SW)    
Max Wind Speed 24 mph    
Max Gust Speed 31 mph    
Visibility 10 miles    
Events      
T = Trace of Precipitation, MM = Missing Value Source: NWS Daily Summary

Daily Weather History Graph

Daily Weather History Graph

Search for Another Location

Airport or City:

Trip Planner

Search our weather history database for the weather conditions in past years. The results will help you decide how hot, cold, wet, or windy it might be!

Date:

Astronomy

Mar. 21, 2011 Rise Set
Actual Time 7:18 AM EDT 7:28 PM EDT
Civil Twilight 6:53 AM EDT 7:53 PM EDT
Nautical Twilight 6:24 AM EDT 8:23 PM EDT
Astronomical Twilight 5:54 AM EDT 8:52 PM EDT
Moon 10:10 PM EDT (3/21) 8:08 AM EDT (3/21)
Length of Visible Light 12h 59m
Length of Day
12h 09m
Waning Gibbous, 95% of the Moon is Illuminated
Mar 21
Waning Gibbous
Mar 26
Last Quarter
Apr 3
New
Apr 11
First Quarter
Apr 17
Full

Hourly Weather History & Observations

Time (EDT) Temp. Dew Point Humidity Pressure Visibility Wind Dir Wind Speed Gust Speed Precip Events Conditions
1:54 AM 52.0 °F 42.1 °F 69% 30.42 in 10.0 mi SE 3.5 mph - N/A   Overcast
2:54 AM 53.1 °F 42.1 °F 66% 30.40 in 10.0 mi SE 3.5 mph - N/A   Overcast
3:54 AM 51.1 °F 43.0 °F 74% 30.37 in 10.0 mi Calm Calm - N/A   Mostly Cloudy
4:54 AM 52.0 °F 44.1 °F 74% 30.35 in 10.0 mi Calm Calm - N/A   Overcast
6:54 AM 53.1 °F 45.0 °F 74% 30.36 in 10.0 mi Calm Calm - N/A   Overcast
7:54 AM 52.0 °F 46.0 °F 80% 30.36 in 10.0 mi Calm Calm - N/A   Mostly Cloudy
8:54 AM 55.0 °F 48.0 °F 77% 30.37 in 10.0 mi SSW 3.5 mph - N/A   Mostly Cloudy
9:54 AM 60.1 °F 51.1 °F 72% 30.37 in 10.0 mi SW 10.4 mph - N/A   Mostly Cloudy
10:54 AM 64.0 °F 54.0 °F 70% 30.35 in 10.0 mi SW 8.1 mph - N/A   Overcast
11:54 AM 66.9 °F 55.0 °F 66% 30.31 in 10.0 mi SW 18.4 mph 24.2 mph N/A   Mostly Cloudy
12:54 PM 70.0 °F 55.0 °F 59% 30.27 in 10.0 mi WSW 21.9 mph 29.9 mph N/A   Mostly Cloudy
1:54 PM 73.0 °F 55.9 °F 55% 30.23 in 10.0 mi SW 17.3 mph - N/A   Mostly Cloudy
2:54 PM 75.0 °F 55.9 °F 51% 30.18 in 10.0 mi SW 18.4 mph 24.2 mph N/A   Clear
3:54 PM 75.9 °F 55.9 °F 50% 30.15 in 10.0 mi SW 17.3 mph 25.3 mph N/A   Clear
4:54 PM 75.9 °F 55.0 °F 48% 30.11 in 10.0 mi SW 17.3 mph 23.0 mph N/A   Clear
6:54 PM 73.9 °F 53.1 °F 48% 30.09 in 10.0 mi SW 12.7 mph - N/A   Clear
7:54 PM 71.1 °F 54.0 °F 55% 30.07 in 10.0 mi SW 8.1 mph - N/A   Clear
8:54 PM 69.1 °F 54.0 °F 58% 30.08 in 10.0 mi SW 4.6 mph - N/A   Clear
9:54 PM 66.9 °F 55.9 °F 68% 30.06 in 10.0 mi SSW 5.8 mph - N/A   Clear
10:54 PM 66.9 °F 57.0 °F 70% 30.07 in 10.0 mi SSW 5.8 mph - N/A   Clear
11:54 PM 64.0 °F 57.0 °F 78% 30.07 in 10.0 mi SSW 4.6 mph - N/A   Clear